Weather History for Hyannis, MA

Change the Weather History Date:

Saturday, January 19, 2013

  Actual Average Record
Temperature  
Mean Temperature 28 °F -  
Max Temperature 46 °F 34 °F 55 °F (1951)
Min Temperature 10 °F 17 °F -2 °F (1971)
Degree Days  
Heating Degree Days 37    
Moisture  
Dew Point 32 °F    
Average Humidity 73    
Maximum Humidity 86    
Minimum Humidity 64    
Precipitation  
Precipitation 0.00 in - - ()
Sea Level Pressure  
Sea Level Pressure 30.17 in    
Wind  
Wind Speed 13 mph (SW)    
Max Wind Speed 26 mph    
Max Gust Speed 37 mph    
Visibility 10 miles    
Events      
Averages and records for this station are not official NWS values.
T = Trace of Precipitation, MM = Missing Value Source: NWS Daily Summary

Daily Weather History Graph

Daily Weather History Graph

Search for Another Location

Airport:

Trip Planner

Search our weather history database for the weather conditions in past years. The results will help you decide how hot, cold, wet, or windy it might be!

Date:

Astronomy

Jan. 19, 2013 Rise Set
Actual Time 7:03 AM EST 4:40 PM EST
Civil Twilight 6:33 AM EST 5:11 PM EST
Nautical Twilight 5:59 AM EST 5:45 PM EST
Astronomical Twilight 5:26 AM EST 6:18 PM EST
Moon 11:06 AM EST (1/19) 12:33 AM EST (1/19)
Length of Visible Light 10h 38m
Length of Day
9h 37m
First Quarter, 57% of the Moon is Illuminated
Jan 19
First Quarter
Jan 26
Full
Feb 3
Last Quarter
Feb 10
New
Feb 17
First Quarter

Hourly Weather History & Observations

Time (EST) Temp. Windchill Dew Point Humidity Pressure Visibility Wind Dir Wind Speed Gust Speed Precip Events Conditions
12:56 AM 10.9 °F - 7.0 °F 84% 30.41 in 10.0 mi Calm Calm - N/A   Mostly Cloudy
1:56 AM 19.0 °F - 14.0 °F 81% 30.40 in 10.0 mi Calm Calm - N/A   Mostly Cloudy
2:56 AM 32.0 °F 22.1 °F 21.0 °F 64% 30.38 in 10.0 mi SSW 13.8 mph - N/A   Overcast
3:56 AM 34.0 °F 23.8 °F 24.1 °F 67% 30.34 in 10.0 mi SSW 16.1 mph 27.6 mph N/A   Mostly Cloudy
4:56 AM 35.1 °F 25.2 °F 25.0 °F 67% 30.30 in 10.0 mi SSW 16.1 mph 28.8 mph N/A   Mostly Cloudy
5:56 AM 37.0 °F 25.6 °F 27.0 °F 67% 30.29 in 10.0 mi SSW 24.2 mph 32.2 mph N/A   Clear
6:56 AM 37.9 °F 27.1 °F 28.9 °F 70% 30.25 in 10.0 mi SSW 23.0 mph 35.7 mph N/A   Clear
7:56 AM 39.0 °F 28.8 °F 30.0 °F 70% 30.26 in 10.0 mi SSW 21.9 mph 34.5 mph N/A   Scattered Clouds
8:56 AM 41.0 °F 31.4 °F 32.0 °F 70% 30.26 in 10.0 mi SSW 21.9 mph 34.5 mph N/A   Scattered Clouds
9:56 AM 43.0 °F 33.3 °F 33.1 °F 68% 30.25 in 10.0 mi SW 25.3 mph 36.8 mph N/A   Mostly Cloudy
10:56 AM 44.1 °F 35.0 °F 34.0 °F 68% 30.20 in 10.0 mi SSW 24.2 mph 32.2 mph N/A   Scattered Clouds
11:56 AM 46.0 °F 37.2 °F 35.1 °F 66% 30.17 in 10.0 mi SW 26.5 mph 35.7 mph N/A   Mostly Cloudy
12:56 PM 46.0 °F 38.3 °F 36.0 °F 68% 30.13 in 10.0 mi SW 20.7 mph 34.5 mph N/A   Scattered Clouds
1:56 PM 46.9 °F - 37.0 °F 68% 30.11 in 10.0 mi SW 21.9 mph 34.5 mph N/A   Partly Cloudy
2:56 PM 46.0 °F 38.5 °F 37.0 °F 71% 30.08 in 10.0 mi SW 19.6 mph 28.8 mph N/A   Clear
3:56 PM 45.0 °F 37.9 °F 36.0 °F 71% 30.07 in 10.0 mi SW 16.1 mph 26.5 mph N/A   Clear
4:56 PM 44.1 °F 36.8 °F 35.1 °F 71% 30.06 in 10.0 mi SW 16.1 mph - N/A   Clear
5:56 PM 43.0 °F 36.0 °F 36.0 °F 76% 30.05 in 10.0 mi SW 13.8 mph - N/A   Clear
6:56 PM 43.0 °F 36.0 °F 36.0 °F 76% 30.05 in 10.0 mi SW 13.8 mph - N/A   Clear
7:56 PM 43.0 °F 36.8 °F 37.0 °F 80% 30.04 in 10.0 mi SW 11.5 mph - N/A   Clear
8:56 PM 42.1 °F 36.6 °F 36.0 °F 79% 30.03 in 10.0 mi SW 9.2 mph - N/A   Clear
9:56 PM 43.0 °F 37.7 °F 37.9 °F 82% 30.01 in 10.0 mi SSW 9.2 mph - N/A   Clear
10:56 PM 45.0 °F 38.2 °F 39.0 °F 80% 29.98 in 10.0 mi SSW 15.0 mph - N/A   Clear
11:56 PM 46.0 °F 39.6 °F 42.1 °F 86% 29.95 in 10.0 mi SW 15.0 mph 25.3 mph N/A   Mostly Cloudy